Weather History for Los Angeles Downtown, CA

Change the Weather History Date:

Thursday, July 5, 2012

  Actual Average Record
Temperature  
Mean Temperature 68 °F 73 °F  
Max Temperature 74 °F 82 °F 100 °F (1907)
Min Temperature 62 °F 63 °F 50 °F (1886)
Degree Days  
Heating Degree Days 0 0  
Month to date heating degree days 0 0  
Since 1 June heating degree days 0 8  
Since 1 July heating degree days 0 0  
Cooling Degree Days 3 8  
Month to date cooling degree days 13 36  
Year to date cooling degree days 205 324  
Since 1 June cooling degree days 111 170  
Growing Degree Days 18 (Base 50)    
Moisture  
Dew Point 57 °F    
Average Humidity 75    
Maximum Humidity 84    
Minimum Humidity 66    
Precipitation  
Precipitation 0.00 in 0.00 in 0.02 in (1896)
Month to date precipitation 0.00 0.00  
Year to date precipitation 4.93 10.61  
Since 1 July precipitation 0.00 0.00  
Sea Level Pressure  
Sea Level Pressure 29.95 in    
Wind  
Wind Speed 1 mph (West)    
Max Wind Speed 8 mph    
Max Gust Speed 13 mph    
Visibility 8 miles    
Events      
T = Trace of Precipitation, MM = Missing Value Source: NWS Daily Summary

Daily Weather History Graph

Daily Weather History Graph

Search for Another Location

Airport:

Trip Planner

Search our weather history database for the weather conditions in past years. The results will help you decide how hot, cold, wet, or windy it might be!

Date:

Astronomy

Jul. 05, 2012 Rise Set
Actual Time 5:47 AM PDT 8:07 PM PDT
Civil Twilight 5:18 AM PDT 8:36 PM PDT
Nautical Twilight 4:43 AM PDT 9:12 PM PDT
Astronomical Twilight 4:04 AM PDT 9:51 PM PDT
Moon 9:36 PM PDT (7/5) 7:57 AM PDT (7/5)
Length of Visible Light 15h 18m
Length of Day
14h 20m
Waning Gibbous, 95% of the Moon is Illuminated
Jul 5
Waning Gibbous
Jul 10
Last Quarter
Jul 18
New
Jul 26
First Quarter
Aug 1
Full

Hourly Weather History & Observations

Time (PDT) Temp. Dew Point Humidity Pressure Visibility Wind Dir Wind Speed Gust Speed Precip Events Conditions
12:47 AM 64.9 °F 57.9 °F 78% 29.95 in 6.0 mi Calm Calm - N/A   Haze
1:47 AM 64.9 °F 57.9 °F 78% 29.94 in 6.0 mi Calm Calm - N/A   Haze
2:47 AM 64.9 °F 57.0 °F 75% 29.93 in 6.0 mi Calm Calm - N/A   Haze
3:47 AM 64.9 °F 57.0 °F 75% 29.93 in 6.0 mi Calm Calm - N/A   Haze
4:47 AM 64.0 °F 57.0 °F 78% 29.92 in 7.0 mi Calm Calm - N/A   Overcast
5:47 AM 64.0 °F 57.0 °F 78% 29.94 in 8.0 mi Calm Calm - N/A   Overcast
6:47 AM 64.9 °F 57.9 °F 78% 29.94 in 6.0 mi Calm Calm - N/A   Haze
10:47 AM 66.0 °F 57.9 °F 75% 29.99 in 5.0 mi Calm Calm - N/A   Haze
11:47 AM 68.0 °F 59.0 °F 73% 29.98 in 6.0 mi Calm Calm - N/A   Haze
1:38 PM 73.4 °F 59.0 °F 61% 29.96 in 7.0 mi Variable 3.5 mph - N/A   Scattered Clouds
2:47 PM 72.0 °F 59.0 °F 64% 29.94 in 9.0 mi Calm Calm - N/A   Clear
3:47 PM 71.1 °F 59.0 °F 66% 29.93 in 10.0 mi Calm Calm - N/A   Partly Cloudy
4:47 PM 70.0 °F 57.9 °F 65% 29.93 in 10.0 mi SW 4.6 mph - N/A   Partly Cloudy
5:47 PM 68.0 °F 57.9 °F 70% 29.92 in 10.0 mi Variable 3.5 mph - N/A   Partly Cloudy
6:08 PM 69.8 °F 57.2 °F 64% 29.92 in 10.0 mi Calm Calm - N/A   Mostly Cloudy
6:47 PM 66.0 °F 57.0 °F 73% 29.92 in 10.0 mi West 6.9 mph - N/A   Mostly Cloudy
7:47 PM 64.9 °F 57.0 °F 75% 29.94 in 10.0 mi Calm Calm - N/A   Overcast
8:26 PM 64.4 °F 55.4 °F 73% 29.95 in 10.0 mi Variable 4.6 mph - N/A   Scattered Clouds
8:47 PM 63.0 °F 57.0 °F 81% 29.96 in 10.0 mi Calm Calm - N/A   Scattered Clouds
8:50 PM 64.4 °F 57.2 °F 77% 29.96 in 10.0 mi Calm Calm - N/A   Mostly Cloudy
9:47 PM 64.0 °F 57.0 °F 78% 29.97 in 10.0 mi WNW 3.5 mph - N/A   Overcast
10:47 PM 63.0 °F 57.0 °F 81% 29.98 in 10.0 mi Calm Calm - N/A   Overcast
11:47 PM 63.0 °F 55.9 °F 78% 29.99 in 10.0 mi Calm Calm - N/A   Overcast